Terminal Aerodrome Forecast
Issued by NWS

Current Version | Previous Version | Graphics & Text | Print | Product List | Glossary On
Versions: 1 2 3 4 5 6 7 8 9 10 11 12 13 14 15 16 17 18
000
FTUS41 KPBZ 170107 AAA
TAFMGW
TAF AMD
KMGW 170107Z 1701/1724 18008KT P6SM VCSH BKN050
     FM170700 18007KT P6SM OVC025
     FM170900 19007KT 4SM -SHRA BR OVC010
     FM171600 26009KT P6SM BKN025
     FM171800 30006KT P6SM SCT035=

USA.gov is the U.S. government's official web portal to all federal, state and local government web resources and services.